Location: *
(46.3500°N, 10.9000°E)
Time: 04:34:02
(UTC+00:00)

Courier 1B Rocket - Visible Passes

Search period start: 14 April 2021 00:00
Search period end: 24 April 2021 00:00
Orbit: 920 x 1202 km, 28.2° (Epoch: 12 April)

Date Brightness Start Highest point End Pass type
(mag) Time Alt. Az. Time Alt. Az. Time Alt. Az.
17 Apr 6.9 20:09:11 10° SSW 20:11:07 14° S 20:11:07 14° S visible
18 Apr 6.9 19:09:51 10° S 19:12:14 12° SSE 19:14:10 11° SE visible
18 Apr 7.2 20:59:52 10° SW 21:00:34 12° SSW 21:00:34 12° SSW visible
19 Apr 6.7 19:59:34 10° SSW 20:03:32 16° S 20:03:32 16° S visible
20 Apr 6.8 18:59:40 10° SSW 19:02:58 14° SSE 19:06:22 10° SE visible
20 Apr 6.9 20:50:48 10° SW 20:52:47 15° SSW 20:52:47 15° SSW visible
21 Apr 6.6 19:50:18 10° SSW 19:54:28 17° S 19:55:36 16° SSE visible
22 Apr 6.8 18:50:04 10° SSW 18:53:45 15° S 18:57:33 10° SE visible
22 Apr 6.8 20:42:00 10° SW 20:44:42 15° SSW 20:44:42 15° SSW visible
23 Apr 6.7 19:41:17 10° SW 19:45:17 16° S 19:47:25 14° SSE visible
